Temp
12 12 12 12 12 13 13 13 12 13 12 12 12 12 12 12 12 12 13 12 11 11 11 11 11 11 10 10 10 10 10 10 10 9 9 9 9 9 9 9 9 9 9 9 9 9 9 8 8
12 12 12 12 13 15 14 12 13 12 13 12 12 12 12 12 13 13 12 12 11 11 11 11 11 10 10 10 9 9 9 9 9 9 9 9 9 9 9 9 9 9 9 8 8 8 8 8 8
12 12 11 12 13 15 14 12 12 12 13 12 11 12 12 12 12 12 12 11 11 11 11 11 10 10 10 10 9 9 9 9 9 9 9 9 9 9 9 9 9 9 8 8 8 8 8 8 8
12 11 12 13 13 11 11 11 12 13 12 12 12 11 12 12 12 12 12 12 11 11 10 10 10 10 10 10 10 9 9 9 9 9 9 9 9 9 9 8 8 8 8 8 8 8 8 8 8
12 12 12 13 11 11 11 12 12 12 11 11 11 12 12 12 12 12 12 12 11 11 11 11 10 10 10 10 10 10 10 9 9 9 9 9 9 9 8 8 8 8 8 8 8 8 8 8 7
11 12 13 14 12 11 11 12 12 12 11 12 11 11 12 12 12 12 12 12 12 11 11 11 11 11 10 10 10 10 10 10 10 10 10 9 9 9 9 9 8 8 8 8 8 8 8 8 7
10 12 13 12 11 11 12 12 12 12 11 11 11 11 11 11 12 12 12 12 11 11 11 10 10 10 10 10 10 10 10 10 10 10 9 9 9 9 9 9 9 9 8 8 8 8 8 8 8
11 10 11 11 12 11 10 11 12 12 11 12 11 11 11 11 11 11 11 11 11 11 11 10 10 10 10 9 9 9 9 9 9 9 9 9 9 9 9 9 9 9 9 8 8 8 8 8 8
10 11 12 11 11 10 10 10 11 11 11 11 11 11 11 11 11 11 11 11 11 11 11 11 10 10 10 10 10 9 9 9 9 9 9 9 9 8 8 8 8 8 8 8 8 8 8 8 8
10 10 11 9 9 9 10 10 10 10 10 11 10 11 11 11 11 11 10 11 11 10 10 10 10 10 10 9 9 9 9 8 8 8 8 8 8 8 8 8 8 8 8 8 8 7 7 8 8
10 10 9 9 10 10 10 9 10 10 11 10 10 10 11 11 11 11 11 10 10 10 10 10 10 10 9 9 9 9 8 8 8 8 8 8 8 8 8 7 7 7 8 8 8 7 7 7 7
8 9 10 9 9 10 10 9 10 9 10 10 10 10 11 11 11 11 10 10 10 10 10 10 10 9 9 8 8 8 8 8 8 8 7 7 7 7 7 7 7 7 7 7 7 7 6 6 6
9 8 9 10 10 10 10 10 10 10 10 10 10 10 11 10 11 10 10 10 10 10 10 10 9 8 9 8 8 8 8 7 7 7 6 6 6 6 6 6 6 6 6 7 7 7 7 6 6
9 9 9 9 10 9 9 9 10 10 10 10 10 10 10 10 10 10 10 9 9 9 9 9 9 9 9 9 8 8 8 8 7 7 7 6 6 6 6 6 6 7 7 7 7 7 7 7 7
9 9 8 8 9 9 8 9 9 10 10 10 10 10 10 10 10 9 9 9 9 9 9 9 9 9 9 8 8 8 8 8 7 7 7 6 6 6 6 6 6 6 6 7 7 7 7 7 7
9 8 9 8 9 8 9 11 9 9 9 10 10 10 9 9 9 9 9 8 8 8 8 8 8 8 8 8 8 8 8 7 8 8 7 7 6 6 6 6 6 6 6 6 7 7 7 6 6
8 10 9 9 9 8 8 9 9 9 9 9 9 9 9 9 8 8 8 8 8 8 8 8 8 8 8 7 7 7 7 7 6 7 7 6 6 5 5 5 5 5 6 6 6 6 7 7 6
9 9 8 9 9 8 8 9 9 9 9 9 8 9 9 9 9 8 8 8 8 8 7 7 7 7 6 6 5 5 5 5 5 5 5 5 4 4 4 5 5 5 6 6 6 6 7 7 7
7 7 7 8 8 8 8 9 9 8 8 8 8 8 8 8 8 8 7 7 7 7 6 6 5 5 5 5 4 4 4 4 4 3 4 3 3 3 3 4 4 5 5 5 6 6 6 6 6
6 7 8 8 8 8 8 9 8 8 8 8 8 8 8 7 7 6 6 6 6 6 6 6 5 4 4 4 3 3 2 2 2 2 3 2 3 3 3 3 3 4 4 5 5 5 5 5 5
6 7 7 8 8 8 8 9 8 8 8 8 8 8 8 8 7 6 6 6 5 5 4 4 4 3 3 2 3 2 2 1 1 2 2 2 2 2 2 3 3 3 4 4 5 5 5 4 4
7 7 7 7 7 9 8 10 9 8 8 8 8 7 7 7 7 7 6 6 6 5 4 2 2 1 1 1 -0 -0 0 0 0 1 1 1 1 1 1 1 2 3 3 3 3 3 4 3 2
7 7 6 6 7 8 8 8 10 8 6 7 7 6 6 6 6 5 5 5 5 5 3 2 1 1 0 0 0 -0 -1 -1 -1 -1 -1 -1 -1 -2 -0 2 2 2 2 1 2 1 2 1 0
6 6 6 6 7 8 8 9 10 9 7 7 6 6 6 6 5 5 4 4 4 4 3 2 -0 -0 -1 -1 -1 -2 -1 -1 -1 -1 -1 -2 -2 -2 -1 1 0 0 0 -0 -0 -1 -1 -1 -1
5 6 8 9 8 10 7 8 9 8 7 7 6 5 6 5 5 4 4 3 2 2 2 0 -1 -1 -1 -1 -1 -2 -2 -2 -2 -2 -3 -2 -2 -1 -1 -1 -1 -2 -2 -1 -1 -2 -2 -2 -2
6 6 7 8 9 10 6 8 8 7 7 7 5 5 5 4 4 3 3 2 1 1 1 -1 -2 -2 -2 -2 -2 -3 -2 -3 -3 -3 -3 -3 -2 -2 -1 -2 -2 -3 -3 -2 -3 -3 -3 -3 -3
5 6 5 6 4 6 8 8 7 6 6 5 5 5 4 3 3 2 2 2 1 1 0 -1 -2 -3 -3 -3 -3 -3 -3 -3 -3 -4 -5 -4 -3 -3 -3 -3 -3 -3 -3 -3 -3 -3 -3 -3 -3
5 5 5 5 5 7 9 7 7 6 5 5 4 4 3 3 2 2 2 1 0 -0 -1 -2 -3 -4 -4 -4 -4 -4 -4 -4 -5 -5 -6 -5 -4 -4 -4 -4 -4 -4 -4 -4 -3 -3 -3 -3 -4
4 4 3 2 2 2 3 6 5 5 4 4 4 3 2 1 1 1 0 0 0 -1 -1 -3 -4 -4 -5 -4 -4 -4 -5 -5 -5 -5 -5 -5 -5 -5 -5 -5 -5 -5 -4 -4 -5 -4 -4 -4 -4
3 3 3 2 3 1 0 1 3 5 4 3 2 2 1 1 0 0 -0 -1 -1 -1 -2 -3 -5 -5 -5 -5 -4 -5 -5 -6 -6 -6 -6 -6 -6 -6 -6 -6 -6 -6 -5 -5 -5 -5 -5 -5 -5
Height
3181 3182 3183 3184 3192 3188 3189 3191 3189 3193 3194 3192 3192 3194 3196 3195 3195 3197 3194 3194 3194 3194 3195 3195 3194 3196 3196 3196 3197 3198 3200 3200 3201 3202 3203 3204 3204 3204 3204 3204 3204 3204 3204 3204 3205 3204 3204 3205 3204
3182 3182 3184 3185 3189 3186 3190 3190 3193 3192 3192 3193 3194 3195 3196 3196 3195 3195 3195 3194 3194 3194 3194 3195 3195 3196 3196 3196 3197 3198 3200 3200 3201 3202 3202 3203 3203 3203 3203 3204 3204 3204 3203 3203 3204 3204 3204 3204 3203
3182 3184 3186 3188 3188 3185 3190 3192 3193 3191 3191 3192 3195 3196 3196 3197 3196 3195 3194 3194 3194 3194 3194 3194 3195 3195 3196 3197 3197 3198 3199 3200 3201 3202 3202 3202 3203 3202 3203 3203 3203 3203 3203 3203 3203 3203 3202 3202 3202
3183 3186 3188 3189 3188 3189 3190 3190 3190 3192 3193 3194 3196 3195 3197 3197 3196 3195 3195 3195 3195 3195 3195 3195 3196 3196 3197 3197 3198 3198 3198 3200 3200 3201 3201 3201 3201 3202 3202 3202 3202 3202 3202 3202 3202 3201 3201 3201 3201
3184 3186 3189 3190 3190 3188 3188 3188 3190 3191 3193 3194 3196 3196 3196 3197 3198 3197 3196 3196 3195 3195 3194 3195 3196 3196 3197 3198 3198 3199 3199 3199 3200 3200 3200 3200 3200 3200 3200 3200 3200 3200 3200 3199 3200 3200 3200 3199 3199
3184 3185 3187 3187 3190 3189 3189 3189 3191 3192 3192 3195 3197 3197 3197 3197 3197 3198 3197 3197 3196 3196 3196 3196 3196 3197 3197 3198 3198 3198 3199 3199 3200 3200 3200 3200 3200 3200 3199 3199 3199 3199 3198 3197 3197 3198 3198 3198 3197
3184 3186 3185 3186 3188 3189 3188 3188 3189 3190 3192 3193 3194 3197 3196 3196 3196 3197 3198 3197 3196 3197 3196 3197 3197 3198 3198 3198 3198 3199 3199 3199 3199 3199 3199 3199 3198 3198 3197 3197 3197 3196 3196 3196 3195 3195 3195 3195 3195
3181 3185 3187 3186 3187 3189 3186 3188 3189 3190 3190 3191 3192 3195 3195 3195 3196 3196 3196 3195 3196 3196 3195 3196 3196 3197 3197 3197 3198 3198 3198 3198 3198 3198 3197 3197 3197 3197 3196 3196 3195 3195 3195 3194 3193 3193 3192 3192 3192
3182 3187 3187 3188 3188 3188 3186 3187 3187 3188 3190 3190 3191 3193 3193 3193 3195 3195 3195 3194 3194 3195 3195 3194 3194 3194 3195 3195 3195 3195 3195 3195 3195 3195 3195 3195 3194 3194 3193 3192 3192 3192 3192 3191 3191 3191 3190 3189 3189
3183 3184 3186 3185 3185 3186 3185 3185 3185 3188 3189 3190 3189 3190 3191 3192 3193 3193 3193 3193 3193 3193 3193 3193 3193 3193 3193 3193 3193 3193 3193 3192 3191 3191 3190 3190 3189 3189 3188 3187 3186 3186 3186 3187 3186 3186 3186 3185 3185
3182 3183 3181 3182 3182 3183 3184 3185 3184 3185 3188 3188 3189 3187 3188 3189 3190 3190 3190 3191 3191 3191 3190 3190 3191 3190 3190 3190 3190 3189 3189 3188 3187 3187 3186 3185 3184 3182 3182 3181 3182 3180 3179 3181 3180 3179 3179 3180 3180
3182 3180 3179 3179 3179 3180 3182 3182 3183 3183 3185 3183 3184 3185 3185 3186 3186 3187 3187 3187 3186 3187 3187 3187 3187 3186 3186 3186 3186 3186 3185 3185 3184 3183 3182 3181 3181 3180 3179 3177 3177 3176 3175 3175 3174 3172 3172 3173 3173
3178 3178 3177 3177 3177 3177 3177 3179 3179 3178 3180 3180 3181 3181 3182 3183 3182 3182 3183 3183 3182 3182 3182 3182 3182 3182 3182 3181 3180 3180 3180 3180 3179 3178 3177 3175 3176 3176 3174 3174 3173 3171 3170 3171 3169 3168 3167 3166 3167
3173 3173 3174 3173 3173 3173 3173 3174 3174 3177 3175 3175 3176 3177 3178 3179 3179 3178 3177 3178 3179 3179 3176 3177 3177 3177 3176 3176 3175 3174 3173 3173 3172 3171 3171 3170 3169 3169 3167 3166 3165 3165 3164 3163 3162 3161 3161 3159 3158
3171 3170 3171 3170 3169 3170 3170 3173 3172 3171 3170 3169 3168 3170 3172 3174 3174 3173 3172 3172 3172 3172 3173 3172 3171 3171 3170 3169 3169 3168 3168 3167 3166 3164 3163 3163 3163 3162 3159 3159 3158 3159 3158 3157 3156 3155 3153 3152 3150
3169 3168 3170 3168 3167 3167 3170 3171 3170 3168 3167 3166 3165 3165 3167 3168 3168 3168 3167 3167 3167 3166 3167 3167 3166 3165 3164 3163 3162 3161 3161 3160 3159 3158 3156 3154 3154 3153 3153 3152 3151 3152 3151 3149 3148 3146 3145 3143 3141
3167 3168 3168 3168 3166 3167 3167 3168 3167 3165 3164 3164 3163 3161 3161 3161 3162 3162 3164 3162 3161 3160 3160 3159 3159 3159 3157 3156 3154 3154 3153 3152 3152 3151 3149 3147 3147 3146 3146 3145 3144 3143 3142 3140 3138 3137 3135 3133 3131
3166 3166 3166 3166 3167 3166 3166 3166 3165 3162 3160 3159 3158 3158 3157 3157 3158 3159 3158 3157 3156 3155 3154 3153 3152 3151 3150 3149 3148 3147 3146 3145 3143 3144 3143 3142 3141 3140 3139 3137 3136 3135 3132 3130 3128 3127 3125 3123 3120
3163 3162 3163 3163 3163 3162 3162 3162 3163 3160 3157 3155 3154 3154 3153 3153 3153 3153 3154 3153 3152 3151 3149 3149 3148 3147 3145 3143 3142 3141 3141 3140 3139 3137 3137 3134 3133 3133 3131 3130 3128 3127 3125 3123 3120 3117 3114 3112 3108
3160 3160 3161 3159 3158 3159 3159 3160 3159 3156 3155 3154 3152 3151 3151 3149 3148 3147 3146 3146 3145 3144 3143 3142 3140 3139 3138 3137 3134 3133 3131 3132 3130 3129 3127 3125 3124 3123 3121 3120 3118 3117 3113 3110 3106 3103 3101 3099 3097
3157 3159 3159 3158 3157 3156 3155 3154 3155 3153 3152 3152 3150 3149 3147 3147 3146 3144 3142 3140 3138 3137 3136 3135 3133 3131 3131 3130 3128 3127 3126 3124 3123 3120 3118 3117 3116 3113 3112 3110 3107 3105 3102 3099 3096 3093 3090 3089 3086
3155 3156 3155 3154 3154 3153 3152 3150 3150 3151 3149 3148 3147 3146 3145 3144 3142 3141 3138 3134 3132 3129 3127 3127 3125 3124 3123 3123 3122 3121 3118 3118 3115 3112 3108 3106 3105 3104 3104 3104 3101 3097 3093 3090 3086 3083 3081 3079 3078
3152 3151 3151 3150 3150 3150 3150 3150 3143 3146 3146 3144 3143 3142 3141 3139 3138 3136 3134 3130 3127 3124 3121 3119 3118 3118 3116 3114 3113 3111 3109 3106 3103 3103 3102 3100 3097 3097 3095 3093 3090 3086 3083 3080 3077 3074 3072 3069 3068
3148 3148 3147 3145 3146 3144 3143 3144 3140 3138 3143 3140 3139 3138 3137 3135 3133 3131 3128 3125 3121 3119 3116 3113 3112 3111 3109 3107 3106 3104 3101 3099 3096 3095 3092 3090 3089 3087 3085 3082 3079 3077 3073 3071 3067 3065 3062 3061 3059
3145 3147 3144 3140 3139 3135 3136 3139 3137 3137 3138 3136 3135 3135 3133 3131 3127 3125 3122 3118 3115 3112 3109 3107 3106 3106 3103 3101 3099 3096 3094 3091 3089 3087 3085 3084 3081 3078 3074 3072 3069 3066 3064 3061 3059 3056 3054 3053 3051
3143 3144 3141 3134 3131 3130 3135 3134 3131 3134 3133 3132 3133 3131 3130 3126 3122 3120 3116 3113 3109 3105 3103 3101 3101 3100 3098 3095 3092 3089 3088 3085 3082 3079 3078 3076 3074 3071 3067 3064 3061 3058 3056 3054 3051 3048 3047 3044 3043
3141 3141 3141 3139 3137 3136 3131 3129 3132 3129 3128 3127 3130 3129 3125 3121 3118 3114 3110 3107 3103 3099 3097 3096 3095 3094 3092 3088 3085 3082 3082 3078 3075 3072 3070 3068 3066 3063 3060 3057 3054 3051 3048 3045 3042 3040 3038 3036 3035
3141 3140 3140 3138 3136 3127 3121 3127 3127 3127 3127 3125 3125 3124 3120 3117 3112 3108 3104 3100 3096 3092 3089 3088 3088 3086 3083 3081 3078 3076 3074 3071 3067 3064 3062 3060 3057 3054 3051 3048 3045 3042 3039 3036 3032 3030 3028 3026 3025
3140 3138 3139 3140 3141 3139 3131 3126 3124 3125 3125 3122 3120 3118 3114 3110 3105 3100 3097 3093 3089 3085 3082 3080 3081 3080 3078 3074 3070 3069 3066 3062 3059 3056 3054 3050 3047 3043 3041 3038 3036 3033 3030 3027 3023 3021 3018 3015 3014
3136 3136 3137 3138 3139 3136 3134 3124 3121 3120 3118 3117 3114 3111 3107 3103 3099 3094 3090 3086 3082 3080 3077 3074 3075 3074 3071 3066 3066 3063 3058 3054 3051 3047 3043 3039 3036 3034 3032 3028 3025 3022 3019 3016 3013 3010 3008 3005 3003
Wind_Speed
8 9 11 12 4 6 10 7 13 8 8 9 11 5 3 2 0 1 3 5 8 10 11 10 11 11 11 11 11 9 8 7 5 4 3 3 2 1 1 0 1 2 3 3 3 3 3 4 3
8 11 10 8 5 13 10 12 7 5 11 12 10 2 2 3 5 4 3 5 9 12 11 9 13 12 11 12 11 10 8 7 6 5 5 5 4 4 4 4 4 5 5 5 5 5 5 5 5
8 10 9 4 7 7 9 6 3 7 11 13 9 4 6 10 8 7 6 7 9 13 13 11 13 11 10 10 10 9 8 7 6 6 6 6 6 6 6 6 6 6 7 7 7 7 7 6 6
9 11 7 4 7 4 5 4 12 11 11 11 8 5 7 9 8 7 7 8 11 13 12 10 11 9 9 10 10 10 9 8 8 8 8 7 7 6 6 7 7 8 9 10 9 8 8 8 8
9 11 4 7 6 6 5 12 15 10 7 8 7 7 7 9 7 8 7 7 9 12 12 13 12 10 10 9 8 8 8 8 8 8 8 7 7 7 8 9 9 10 10 10 11 10 10 10 9
6 11 9 10 6 4 3 11 10 12 10 14 3 5 6 10 9 7 6 7 8 10 11 12 11 10 10 9 9 9 8 8 8 8 8 8 8 8 9 10 11 11 11 12 12 12 12 13 12
5 6 11 12 8 4 8 12 13 14 7 11 7 4 7 11 11 7 6 7 8 10 10 11 11 10 9 10 10 10 10 11 11 11 11 12 12 12 13 13 14 14 14 14 15 15 14 15 15
10 5 10 10 10 5 7 10 13 14 11 12 9 6 6 10 12 9 9 9 10 10 10 12 13 13 13 13 13 13 13 14 15 15 15 16 16 17 18 19 19 20 20 19 19 19 19 19 19
8 3 8 7 8 5 7 7 11 15 12 12 12 10 9 8 10 11 11 13 13 11 10 12 13 13 13 14 15 16 16 17 17 18 18 19 19 19 20 21 21 23 25 25 24 24 24 24 23
5 4 6 8 7 5 12 12 13 9 8 10 12 12 11 11 11 11 12 13 15 14 11 12 12 13 16 17 17 18 19 20 21 20 19 18 19 20 21 23 21 20 23 28 29 28 28 28 28
6 5 8 10 13 13 10 6 12 12 8 9 8 10 12 11 11 11 12 12 14 16 15 14 14 15 17 19 18 18 19 19 21 22 22 23 24 23 22 23 25 23 24 30 29 30 30 31 31
5 8 10 14 16 16 14 13 13 12 12 16 16 15 17 15 11 14 16 14 13 17 18 18 17 19 19 21 21 21 22 23 23 25 27 28 26 26 25 25 26 26 29 32 32 30 32 34 34
9 10 11 12 14 17 19 19 21 22 19 19 19 20 19 19 18 16 18 21 21 20 22 21 22 21 22 22 24 22 23 24 26 27 30 29 27 27 30 30 32 32 32 29 29 28 30 32 34
12 14 15 15 12 14 14 11 18 20 27 28 25 24 23 21 21 21 20 23 24 24 24 26 26 25 25 26 24 25 25 25 25 27 28 31 31 31 32 32 30 24 21 18 20 22 26 28 30
11 12 13 9 6 5 5 4 4 6 13 21 28 30 27 23 23 21 23 24 26 26 28 29 30 29 29 28 29 27 28 27 26 28 28 31 34 33 31 27 21 18 19 22 26 28 29 31 34
11 12 2 4 4 5 3 2 3 5 5 7 9 15 24 26 26 26 24 25 27 29 30 32 33 32 32 32 32 32 30 29 29 29 28 27 26 26 24 21 21 23 27 29 31 32 34 36 38
8 8 7 5 8 5 4 7 8 9 8 6 7 10 16 17 19 23 27 28 29 30 33 34 36 35 35 34 33 32 31 30 30 29 29 25 24 22 22 23 27 30 32 34 36 37 39 41 43
4 7 5 3 3 10 9 10 8 11 9 7 7 9 9 9 12 18 22 27 31 33 32 34 37 37 35 33 31 30 29 25 23 24 24 25 23 24 27 30 32 33 35 37 39 41 43 45 46
10 10 12 12 9 11 7 9 8 6 7 3 4 7 9 11 15 20 21 27 30 32 36 33 37 38 38 34 30 26 26 30 36 32 29 24 27 27 28 32 34 35 38 41 43 45 45 45 47
11 10 12 10 7 9 7 10 8 5 3 4 2 4 7 8 9 12 16 22 28 33 35 37 39 38 40 45 47 46 35 29 27 29 28 29 31 35 37 38 40 40 40 43 45 46 45 43 43
12 14 12 11 12 13 10 12 5 3 3 4 4 3 7 9 9 12 14 18 22 26 32 36 37 34 32 32 32 30 29 30 31 33 36 39 40 39 41 46 47 49 47 46 44 43 43 39 38
13 11 13 13 11 13 3 13 8 7 6 6 6 7 9 7 13 18 21 21 23 27 32 34 35 33 29 29 31 35 35 37 38 38 41 43 42 44 48 46 44 45 41 39 37 37 37 35 32
9 14 8 8 13 15 15 13 13 10 9 9 10 5 7 12 19 22 23 23 23 27 30 34 35 35 38 40 39 38 43 42 49 40 44 46 34 29 32 35 35 35 34 33 32 31 30 29 26
9 9 11 10 11 15 20 20 17 12 14 11 11 10 12 17 25 30 27 24 26 26 27 29 33 35 34 35 39 40 42 39 31 31 31 30 30 30 33 34 34 33 31 30 29 28 27 25 26
16 11 12 9 7 11 2 10 18 9 16 15 16 13 19 22 32 35 31 31 29 27 25 26 32 34 37 36 38 42 42 40 37 31 24 26 27 28 31 33 33 32 31 31 31 29 28 28 29
4 10 12 10 11 13 1 9 8 11 16 17 12 21 29 27 36 38 31 33 28 25 22 25 30 36 37 38 39 40 42 36 37 25 24 26 28 29 32 33 33 33 33 32 32 32 31 31 31
3 4 7 10 9 10 17 12 16 18 18 13 18 26 21 32 40 35 32 33 27 25 23 23 30 35 38 40 40 44 40 36 28 26 27 28 31 31 30 31 32 33 34 34 34 34 35 35 35
4 6 6 6 5 11 8 9 15 10 14 14 17 21 27 38 38 33 35 33 28 24 23 23 31 36 40 41 44 48 42 47 34 29 29 31 32 32 32 32 33 34 35 36 36 36 36 37 37
4 4 2 5 5 5 6 9 6 7 9 14 22 25 35 37 31 34 33 30 28 24 22 26 32 38 40 45 46 46 42 31 33 33 34 37 36 35 35 35 36 36 36 37 37 37 37 38 39
7 2 4 2 6 11 10 17 8 11 14 21 26 36 35 29 31 34 33 27 24 23 24 25 31 39 42 46 46 33 37 31 33 37 39 41 40 37 37 38 39 39 40 40 39 39 38 40 42
Wind_Direction
125 128 137 132 116 151 141 146 139 131 137 155 153 150 184 166 217 57 157 169 167 167 153 146 142 144 140 137 134 135 138 141 143 147 163 178 170 175 190 216 284 288 293 294 295 299 306 321 328
128 134 139 130 167 163 136 140 132 148 163 163 154 91 118 180 141 156 168 166 161 159 159 152 145 149 153 150 151 158 165 170 179 195 207 222 232 247 255 261 271 277 281 281 287 293 301 308 312
139 142 125 141 164 127 147 155 166 178 173 164 162 147 150 154 161 166 160 166 160 164 168 161 159 157 161 159 160 164 173 184 193 207 217 222 232 238 253 264 270 275 277 281 289 298 303 302 304
142 140 111 126 145 131 161 206 169 168 184 175 168 170 177 169 170 157 148 154 170 171 169 168 170 162 167 168 173 179 182 195 203 215 218 222 232 246 258 267 272 275 279 284 286 287 289 294 298
147 155 147 145 126 125 151 181 172 164 172 171 163 192 216 192 181 159 146 153 162 174 168 171 178 177 183 187 186 198 201 208 219 227 234 240 248 254 260 261 263 266 272 279 284 284 280 279 279
151 169 182 168 146 136 144 191 191 189 190 189 198 209 216 219 191 175 164 174 177 179 184 184 190 193 198 205 212 219 223 229 236 239 245 253 261 263 266 270 273 275 275 277 279 283 282 280 277
171 179 190 176 164 143 200 195 199 193 189 205 193 199 252 217 211 204 205 206 213 200 197 210 218 221 223 231 239 242 247 247 250 258 261 263 264 267 271 274 275 274 273 272 275 276 274 273 273
169 163 182 182 185 177 188 184 200 187 206 206 199 221 231 236 231 235 225 232 231 221 219 221 229 235 240 242 249 255 255 255 260 263 266 269 271 276 280 281 282 283 282 279 275 272 270 268 269
172 162 204 202 182 195 186 169 185 190 190 192 195 203 217 224 245 255 259 243 241 233 246 246 240 238 245 254 255 255 258 262 266 269 272 276 281 282 280 279 281 285 287 285 280 277 276 277 275
191 184 204 195 198 213 195 191 194 182 204 199 202 216 233 244 256 255 251 249 253 248 260 263 262 262 261 257 259 262 263 262 261 262 264 266 268 271 276 276 270 276 281 283 280 277 276 275 277
259 204 226 225 223 216 219 238 205 204 222 216 219 229 231 240 249 251 242 252 254 252 251 251 258 265 263 261 261 261 269 275 268 266 263 265 264 261 259 263 271 267 279 280 276 272 271 270 270
287 269 247 246 247 247 249 252 240 249 237 231 229 233 242 246 246 244 248 246 249 253 254 251 257 264 270 267 266 269 272 270 271 271 273 275 273 271 266 269 266 267 273 275 274 272 269 267 265
297 286 287 274 268 260 264 268 260 254 242 247 245 247 251 255 255 254 244 241 247 246 247 253 254 263 268 264 263 261 264 270 273 273 271 270 267 269 272 277 279 280 277 276 278 276 277 277 273
280 287 295 298 282 276 270 278 274 272 261 258 253 252 256 257 257 255 249 248 253 255 253 254 258 258 266 266 261 259 260 262 268 276 276 273 271 270 275 276 278 274 272 276 278 281 279 275 272
290 296 297 283 277 230 242 282 333 288 272 263 256 251 252 255 258 248 248 249 251 253 258 260 261 262 263 268 265 264 262 264 269 272 273 269 265 268 271 275 270 267 280 288 293 292 287 282 280
292 295 297 230 184 224 260 273 264 337 343 300 284 259 252 256 257 254 252 251 253 256 260 260 259 261 262 268 268 264 265 263 265 270 270 268 264 261 261 261 265 274 282 287 289 288 287 283 280
274 272 277 268 214 244 285 281 304 310 311 313 313 263 246 250 255 256 254 256 259 259 260 263 262 262 262 264 266 265 261 261 267 264 264 262 261 262 265 270 278 284 287 286 285 285 285 283 280
256 284 272 248 270 288 286 287 301 315 315 284 271 267 263 260 278 279 272 270 271 272 270 271 266 265 266 267 270 266 259 259 260 268 260 260 262 265 272 278 283 285 285 287 289 289 288 285 281
271 267 269 273 284 282 282 286 300 321 330 289 270 272 265 268 262 264 282 282 278 277 276 280 284 279 278 275 272 265 268 271 272 260 258 259 266 274 284 285 285 285 287 287 287 284 282 280 279
261 268 281 292 243 298 289 291 286 334 15 53 8 292 289 283 284 289 292 289 283 279 279 280 276 271 273 275 272 272 262 244 246 245 252 258 262 266 279 289 297 299 295 292 289 287 286 284 282
255 258 272 284 280 286 281 281 208 269 267 340 357 341 332 313 307 313 301 291 287 285 280 277 276 276 279 281 271 253 245 243 248 253 259 262 265 270 281 280 293 298 297 292 288 286 285 283 282
260 266 271 278 283 279 240 287 249 235 235 286 304 327 322 310 326 318 316 309 291 281 280 277 271 268 267 261 260 260 251 254 253 258 257 258 265 268 271 279 281 281 285 289 288 285 282 281 281
252 256 261 266 267 272 261 268 262 244 211 264 280 293 302 328 325 328 324 316 305 288 282 279 278 273 271 276 288 290 279 276 255 260 267 271 273 279 285 287 286 290 291 291 287 283 281 283 282
235 260 281 284 265 255 262 252 274 247 221 261 274 296 314 316 322 326 325 318 312 301 286 281 276 271 269 273 285 289 295 292 286 291 296 299 296 294 292 291 292 294 295 295 292 289 287 284 281
250 261 272 250 218 260 273 255 259 254 232 268 266 306 312 304 326 323 320 321 314 298 286 280 272 266 265 275 283 289 296 306 292 293 291 289 293 295 298 297 296 297 299 297 292 288 284 280 281
230 237 245 277 282 300 176 259 248 243 250 256 263 312 295 307 318 316 316 320 315 299 283 278 269 265 271 275 282 288 295 308 294 283 290 297 297 297 293 292 293 293 292 290 290 287 284 281 281
282 273 278 289 276 269 266 266 269 260 248 264 295 295 297 316 311 317 314 317 310 303 281 276 268 266 269 273 279 285 297 305 291 284 287 295 297 293 289 287 286 287 289 290 287 286 282 280 277
270 279 303 303 294 289 276 247 271 278 265 265 285 292 300 305 313 315 318 313 306 299 275 272 266 263 266 273 279 284 292 303 283 287 295 297 296 296 291 288 287 287 288 288 287 284 281 278 276
294 276 334 319 322 316 313 301 274 297 279 285 295 295 305 314 314 320 319 311 301 295 276 267 263 263 268 274 280 292 298 297 299 298 294 299 301 299 295 290 287 285 285 285 284 283 281 278 275
263 258 318 308 277 243 255 277 275 311 281 267 294 306 315 315 317 324 323 320 312 288 274 266 265 264 268 274 293 300 303 293 293 297 299 299 299 297 293 289 285 283 281 280 281 282 281 278 274